GLOBALSTAR M058 [-]

Last updated on Fri Dec 29 2023 00:02:56 GMT+0000 (Coordinated Universal Time)

1 25907U 99049A 23362.50176913 -.00000087 00000+0 -35684-4 0 9998 2 25907 51.9940 102.2295 0001745 325.7189 34.3533 11.93171738 88688

Satellite not in orbit

GLOBALSTAR M058 [-]